Temp
24 23 22 21 19 20 20 22 22 23 22 22 22 21 21 20 20 20 19 19 19 18 19 19 19 19 18 18 18 18 18 18 18 17 17 17 17 17 16 17 17 17 17
26 24 22 20 18 19 20 21 22 22 21 21 21 21 20 20 20 20 20 19 19 19 18 18 19 18 18 18 18 18 18 18 17 17 17 17 17 16 16 17 17 16 16
25 24 21 19 18 21 21 21 22 22 20 20 20 20 20 20 20 19 19 19 19 18 18 18 18 18 18 18 17 17 17 17 17 17 17 17 17 16 16 16 16 16 16
25 24 22 19 18 20 21 21 21 22 21 19 18 19 19 19 19 19 19 19 18 18 18 18 18 18 17 17 17 17 17 17 17 16 16 16 16 16 15 15 16 16 16
24 24 23 19 19 20 21 21 20 21 21 20 19 19 20 20 20 19 19 19 18 18 18 18 18 17 16 17 17 17 17 16 16 16 16 16 16 15 15 15 15 16 16
25 24 23 21 20 20 21 21 20 20 20 18 19 19 18 19 19 19 18 18 18 18 18 18 18 17 16 17 17 16 16 16 16 16 15 15 15 15 15 16 16 16 16
25 24 23 21 20 21 20 20 20 20 20 19 20 19 20 19 18 18 18 17 18 18 17 17 17 16 17 17 17 16 16 16 16 16 15 15 15 15 15 15 15 15 14
25 23 22 21 19 20 20 20 20 20 20 20 20 20 20 19 18 18 18 17 18 17 17 17 16 16 16 16 16 16 16 16 16 15 15 15 15 14 14 14 14 13 13
23 22 22 21 19 19 20 20 19 19 19 19 19 19 19 18 18 19 17 17 17 17 17 17 16 16 16 16 16 16 16 15 15 15 15 15 14 14 13 13 13 13 13
22 22 21 21 20 19 18 19 19 18 18 19 19 18 18 18 18 17 20 17 17 17 17 16 15 16 16 16 16 16 15 15 15 15 14 14 14 14 14 13 13 13 13
21 21 21 20 20 19 18 18 18 18 18 18 18 18 18 18 17 18 18 17 17 16 16 15 15 15 16 16 16 15 16 15 15 14 14 14 14 14 13 13 13 12 12
20 20 20 20 20 19 18 18 17 18 17 17 17 17 17 17 18 18 18 17 18 16 16 15 15 15 16 15 15 15 15 15 14 14 14 14 14 14 13 13 12 12 12
21 20 20 20 20 19 19 18 17 17 17 17 17 17 17 17 17 17 17 17 16 16 16 15 15 15 16 16 15 15 15 15 14 14 14 14 14 14 13 12 12 12 12
19 20 19 19 19 19 19 18 17 17 17 17 16 16 16 16 16 16 17 15 16 16 15 15 15 16 16 15 15 16 15 14 14 14 14 14 14 13 13 12 12 12 12
19 20 20 19 19 19 18 18 17 17 16 16 16 15 15 15 15 15 17 16 16 16 16 15 15 15 16 15 15 16 14 15 15 14 13 13 13 13 13 13 12 12 12
20 20 20 19 18 18 18 18 17 16 15 15 15 15 15 15 14 14 15 16 15 16 16 15 15 15 15 15 15 15 16 15 14 13 13 13 13 13 13 13 12 12 12
21 20 20 19 18 18 18 17 17 15 14 14 14 15 15 14 14 15 14 14 14 16 16 15 15 15 15 15 14 16 15 14 14 13 13 13 13 12 12 12 12 12 12
21 20 18 19 18 18 18 17 16 15 14 14 14 15 15 14 14 14 14 14 14 15 16 15 15 15 15 15 15 15 14 14 15 14 13 13 12 12 12 12 12 12 11
22 19 18 18 18 18 17 16 15 15 14 15 14 14 14 14 14 14 14 14 15 14 15 15 15 15 14 15 14 14 14 15 14 13 13 13 12 12 12 12 12 12 11
21 18 17 18 18 18 17 16 14 14 14 14 14 14 14 14 14 14 14 14 14 14 14 14 15 14 15 14 14 13 14 14 13 14 13 13 13 13 12 12 12 12 11
17 16 17 16 17 17 15 14 14 14 14 14 14 14 14 13 14 14 14 13 14 14 15 14 15 14 14 13 12 11 11 12 13 13 13 13 13 13 12 12 12 12 12
15 16 16 16 17 16 15 14 14 14 14 14 14 14 13 13 13 13 13 13 13 13 14 14 13 12 13 14 13 12 10 11 11 12 13 13 13 13 13 12 13 13 13
14 14 14 15 17 16 15 14 14 14 14 14 14 13 13 14 14 14 14 14 13 14 14 14 14 14 13 13 14 14 11 11 11 12 12 12 13 13 12 13 14 14 14
14 14 14 15 15 15 15 14 14 14 14 14 14 14 14 14 14 14 14 13 14 14 14 14 14 14 14 13 14 15 16 15 11 11 12 13 13 13 13 14 15 15 15
14 14 14 14 14 14 14 14 14 14 14 14 14 14 14 14 14 13 14 14 14 13 14 14 14 14 15 14 14 14 15 15 15 12 11 12 13 14 14 14 15 15 15
13 14 13 13 13 14 14 14 14 14 14 14 14 14 14 14 14 13 14 14 13 14 14 15 14 14 15 15 15 15 16 15 13 13 11 11 12 14 15 14 15 16 16
Height
746 749 750 751 754 755 758 760 761 763 765 767 769 773 776 779 782 786 788 792 794 796 797 799 801 805 808 810 812 814 817 819 821 822 825 827 828 829 830 832 834 835 836
743 747 749 750 753 755 758 760 762 764 766 768 771 774 777 780 783 787 789 791 794 798 801 803 804 807 810 813 815 817 818 821 822 824 827 829 831 832 833 835 836 837 838
743 745 747 749 752 754 758 759 761 764 768 770 774 777 780 782 785 788 791 794 795 798 802 806 808 810 812 814 816 819 821 823 825 826 828 832 834 835 836 837 839 840 841
743 745 747 749 752 755 757 759 761 764 767 771 775 778 782 783 785 788 792 796 799 801 803 806 809 812 814 815 818 820 822 825 827 828 830 834 836 838 839 842 842 844 845
742 745 746 748 751 755 757 759 762 764 767 771 774 778 781 784 786 790 793 797 801 804 804 807 810 812 815 816 819 822 824 827 829 831 832 834 838 840 841 844 845 846 848
740 744 747 748 751 754 757 759 762 764 768 770 775 779 783 786 784 789 794 797 802 805 809 807 810 813 815 816 820 824 827 829 831 832 835 837 839 843 842 845 846 849 852
738 742 746 748 750 753 758 759 761 764 767 770 774 776 780 790 793 793 795 801 802 807 811 811 811 814 816 817 820 825 828 830 832 835 836 839 840 844 845 847 847 851 855
735 740 745 749 752 752 758 759 761 763 766 769 771 775 775 784 792 801 801 803 803 807 812 814 812 816 818 820 822 825 830 832 834 835 838 841 842 845 847 849 852 854 857
737 740 743 747 752 753 755 759 761 763 766 768 770 772 774 777 790 789 790 805 804 809 813 814 814 816 819 823 825 827 830 834 836 837 840 840 844 846 849 851 853 856 858
740 739 741 744 749 753 753 757 761 763 765 768 769 771 777 780 785 785 781 801 807 808 812 814 813 816 820 824 826 830 832 835 837 840 841 842 846 846 851 854 856 858 860
735 738 738 741 745 749 753 755 759 762 765 767 769 771 774 778 781 783 786 796 802 808 812 814 814 817 822 825 827 830 833 836 839 841 843 844 845 851 854 855 857 860 862
732 732 735 736 740 745 750 753 755 759 762 764 767 768 771 775 778 781 785 791 795 806 811 813 815 818 822 825 828 830 834 837 839 841 844 843 849 853 856 857 860 862 864
722 728 729 732 736 740 744 749 751 754 758 761 763 765 768 771 776 780 785 790 794 800 809 812 816 818 822 824 827 829 835 837 839 843 844 846 851 854 857 860 861 864 866
721 723 727 730 731 735 739 743 746 749 753 756 759 762 765 769 773 777 782 787 791 798 804 809 813 817 821 825 828 829 835 837 840 842 845 849 852 855 858 860 862 865 866
720 719 722 725 727 730 735 740 743 745 749 753 756 758 762 766 770 773 779 783 789 793 798 807 812 816 820 824 828 829 835 837 840 843 847 851 853 855 858 861 864 865 866
710 712 717 720 724 726 729 734 738 741 745 750 752 754 757 761 766 770 775 779 785 789 793 804 810 815 819 824 829 831 834 837 841 844 848 852 854 856 858 862 865 866 867
701 705 707 714 719 723 726 731 734 737 741 744 747 749 753 755 759 764 771 776 782 786 792 802 811 815 819 825 829 831 834 837 841 844 848 851 854 857 859 863 865 866 868
694 694 698 706 713 718 722 727 731 733 736 739 743 746 748 750 752 760 766 772 778 785 790 800 807 813 818 822 827 832 835 838 841 844 847 850 854 856 859 863 865 865 868
685 686 691 697 704 711 717 723 727 729 732 736 739 741 743 746 745 752 760 766 774 782 787 796 805 811 816 822 826 832 834 836 841 844 847 849 853 855 859 862 864 866 868
677 680 686 692 698 705 713 719 724 727 730 732 734 735 735 736 740 742 753 760 769 779 786 794 802 809 814 822 825 832 834 838 842 843 845 850 852 853 859 860 862 865 867
673 676 680 684 695 700 706 715 719 721 724 728 729 728 728 728 735 733 745 756 766 775 781 791 800 806 814 820 825 834 836 840 841 843 846 849 851 853 857 859 860 862 864
670 672 676 680 687 696 701 710 713 716 719 723 725 724 727 727 728 734 742 753 764 771 779 786 796 804 812 815 822 827 837 841 840 842 844 847 849 852 854 856 857 858 861
667 670 674 677 681 692 700 708 711 714 717 720 722 723 726 728 731 737 744 752 762 768 774 782 791 798 805 812 815 817 830 833 837 840 841 844 846 849 851 854 853 855 857
666 670 676 678 680 690 698 704 706 708 713 716 720 722 726 729 733 739 745 752 758 764 772 778 788 795 799 806 812 814 816 820 831 838 839 841 843 845 848 850 850 851 853
663 666 671 678 681 688 697 701 702 706 711 715 718 721 724 730 735 738 744 751 757 764 770 775 784 791 796 801 804 810 815 819 823 827 835 836 840 839 843 845 846 847 848
661 663 668 673 679 685 696 699 699 703 708 713 716 719 722 727 732 737 742 748 753 760 766 771 779 787 793 798 803 807 811 815 820 823 824 832 835 838 838 840 840 843 845
Wind_Speed
16 15 14 15 17 18 21 21 21 21 29 31 31 30 32 33 32 32 30 28 27 29 30 30 27 24 23 23 26 25 24 24 22 24 24 22 22 22 22 23 23 22 23
13 19 20 19 20 21 23 22 21 20 28 30 31 32 34 34 33 32 31 30 30 27 24 26 25 24 23 22 23 25 25 25 26 25 24 22 20 21 22 23 23 23 22
14 18 21 22 23 22 24 23 23 21 25 29 31 32 34 34 33 32 31 28 29 26 24 24 23 21 21 24 25 26 26 26 26 26 25 22 20 22 22 23 23 23 23
17 18 20 23 24 24 25 25 24 24 26 27 29 31 33 33 33 32 29 26 25 25 25 24 23 22 23 25 26 27 27 27 27 26 27 23 22 21 21 21 22 21 20
20 19 21 24 26 26 25 27 26 25 26 28 31 32 33 32 32 29 27 25 24 23 24 23 23 24 27 27 27 27 27 26 24 25 25 24 22 20 19 18 19 21 21
24 21 21 24 26 27 27 26 28 26 26 28 31 32 29 30 32 27 26 25 24 22 20 23 25 27 28 28 27 26 25 24 24 24 24 23 21 18 20 19 18 18 17
26 23 22 23 26 27 28 27 25 28 30 30 31 26 28 21 23 24 24 20 20 19 19 21 25 27 28 27 27 25 24 23 23 23 23 21 21 18 17 17 19 16 15
28 26 24 22 26 26 27 27 27 27 30 32 31 33 28 18 21 15 16 18 18 20 19 22 25 26 27 27 27 25 24 22 22 23 23 20 18 19 19 18 17 16 16
24 24 24 24 26 26 26 26 27 27 29 31 32 31 32 36 31 26 17 15 17 20 21 24 28 29 27 26 25 25 23 22 23 24 23 24 22 19 18 18 18 17 17
19 23 24 25 27 26 26 26 26 27 29 31 32 33 35 37 31 28 22 15 20 23 24 26 31 29 27 26 26 25 23 23 22 22 24 23 19 20 18 17 18 17 17
23 23 25 27 29 28 27 26 26 27 28 33 34 37 34 38 24 21 22 25 23 24 25 29 32 30 25 26 27 25 22 21 23 23 23 22 20 18 18 17 17 17 17
26 28 29 29 30 29 28 26 27 27 31 34 36 39 45 37 28 33 32 32 27 27 27 32 33 30 26 28 28 24 24 23 23 23 23 20 19 17 17 17 16 16 16
35 31 32 30 30 30 29 29 29 29 32 34 36 46 42 33 34 35 34 32 31 32 31 34 33 30 27 29 30 26 22 22 23 24 22 21 18 17 16 17 16 16 15
31 34 32 31 31 30 28 29 30 31 31 33 38 43 41 39 40 38 36 37 37 34 37 36 34 28 27 31 30 25 22 23 24 22 22 20 18 17 16 15 15 15 15
27 35 36 35 33 31 28 27 27 29 31 30 34 39 40 40 41 39 37 37 37 39 39 37 33 30 29 32 29 25 25 22 21 22 23 20 19 18 16 15 15 15 14
37 38 37 36 34 32 31 28 27 26 27 27 29 37 41 43 40 37 35 35 40 37 42 41 35 30 30 31 29 25 23 21 22 23 23 21 18 18 16 15 14 14 13
40 38 39 36 35 33 30 28 27 24 25 27 30 31 44 46 40 39 35 33 38 38 42 41 32 26 28 30 28 23 25 23 22 22 22 20 18 16 15 15 14 13 12
32 36 35 34 35 33 30 27 26 23 25 26 28 32 38 40 45 39 37 35 40 40 42 42 34 31 30 30 27 26 25 22 19 20 21 18 18 17 16 15 14 12 12
31 34 34 35 37 34 30 24 24 23 25 26 29 32 37 42 38 46 41 38 42 39 42 44 38 34 29 28 27 28 24 20 21 21 19 19 18 15 16 17 14 13 13
25 31 33 34 37 33 28 23 23 24 25 27 26 29 35 42 37 45 40 43 43 41 40 40 41 34 31 29 25 24 21 20 21 19 17 18 17 15 17 16 15 15 14
21 28 33 36 36 33 27 23 21 24 25 24 23 20 27 34 45 39 45 42 42 43 43 43 42 36 28 29 27 14 12 16 18 18 18 17 18 16 18 18 16 14 13
23 29 34 37 37 32 28 24 17 20 20 22 17 20 23 20 37 38 40 42 41 38 42 41 34 29 24 33 17 13 3 3 12 17 18 19 19 19 19 21 16 13 13
20 26 30 34 36 32 26 22 19 18 15 15 15 24 24 24 33 35 36 40 41 40 42 43 40 35 25 33 28 9 3 3 5 11 20 21 20 22 22 21 16 16 17
17 22 25 31 32 33 31 23 25 18 14 12 20 22 28 29 31 31 32 33 37 37 38 42 40 37 31 28 28 9 11 14 3 1 10 22 22 22 23 23 19 18 20
20 25 28 25 27 32 32 30 23 18 18 18 21 20 26 29 33 33 32 30 32 36 39 41 36 36 33 32 28 20 17 12 11 4 3 5 20 24 26 26 20 18 20
20 27 26 26 26 32 32 30 28 25 22 20 21 23 21 28 32 34 36 36 34 37 38 42 40 40 38 34 31 28 23 10 7 5 3 3 6 8 22 19 15 15 19
Wind_Direction
202 193 195 181 173 173 172 167 167 170 172 174 171 167 163 160 157 153 150 145 140 140 142 141 138 134 130 130 134 132 127 128 127 118 114 112 110 107 111 114 112 110 108
178 182 184 176 175 177 171 167 166 165 171 174 170 167 164 162 157 156 153 149 146 143 141 144 140 136 137 139 139 135 136 135 129 124 122 117 116 111 112 117 112 111 109
178 179 180 179 177 180 170 169 166 164 166 173 169 165 164 162 161 159 156 153 149 141 141 145 141 140 141 143 141 141 139 134 130 129 121 120 120 114 113 116 112 109 106
184 182 182 183 179 181 174 171 169 165 163 160 163 167 167 165 164 162 158 152 146 147 146 145 149 150 148 149 148 147 144 139 134 133 127 128 121 116 113 111 108 107 107
192 187 187 183 182 184 182 174 173 170 167 166 161 169 170 170 168 166 161 158 152 154 151 153 153 155 153 154 152 150 147 141 139 134 132 128 124 121 117 114 113 112 112
187 190 191 184 184 187 188 183 177 174 172 164 164 173 165 175 169 169 162 159 159 157 164 161 161 160 158 155 154 152 147 144 142 137 134 131 124 120 122 125 122 123 129
188 190 192 187 186 188 192 189 187 175 176 175 171 181 171 182 165 166 160 162 160 162 171 170 164 164 160 159 157 154 153 151 148 143 138 135 127 120 115 127 126 133 133
189 190 191 191 193 189 197 194 191 184 180 180 176 175 175 181 166 174 165 175 167 170 177 178 170 168 164 162 159 158 158 157 153 146 141 132 127 126 125 123 125 123 129
195 191 190 192 197 196 197 200 197 191 185 181 182 183 177 173 173 165 142 190 176 178 185 185 171 169 167 162 159 158 158 155 150 142 138 136 136 127 127 127 127 126 127
206 200 196 195 199 200 198 201 201 197 190 186 187 183 171 171 173 172 170 197 188 184 193 185 173 166 161 160 157 156 155 155 155 150 145 140 138 133 133 132 133 130 129
210 211 203 201 200 201 204 201 204 202 196 192 190 186 188 184 193 186 180 185 183 191 194 182 168 161 160 164 162 160 162 161 157 153 148 142 133 139 140 136 135 134 135
213 210 210 205 202 201 206 205 205 208 202 200 199 195 188 193 200 183 186 190 183 196 195 180 170 165 166 169 167 167 167 164 162 157 151 137 142 143 143 141 141 139 138
214 211 208 203 202 203 206 210 208 211 213 211 204 190 191 195 189 190 190 187 181 187 188 178 175 174 175 176 174 168 172 169 165 161 145 143 146 149 149 149 146 144 142
216 217 211 207 202 204 208 211 214 212 218 218 214 199 195 191 184 184 185 186 184 186 182 181 179 179 181 182 176 170 180 169 163 156 150 152 158 153 154 153 149 150 146
234 225 219 211 207 204 207 210 213 216 220 219 220 205 198 191 185 187 191 189 186 183 180 184 181 181 181 180 178 173 175 167 164 161 161 164 164 158 158 157 158 159 155
239 236 228 218 211 206 207 212 218 223 226 216 208 209 200 196 191 191 187 186 189 183 182 185 184 182 179 182 180 176 173 166 169 168 167 170 170 164 162 163 167 164 161
246 235 230 219 213 208 209 214 225 227 226 214 210 202 202 202 198 196 190 187 190 184 183 183 182 182 180 183 183 182 175 172 172 173 174 174 173 171 169 174 174 170 168
250 231 223 215 210 206 210 214 224 222 214 210 206 205 201 203 199 191 185 185 193 185 183 182 179 174 175 183 188 189 181 176 176 179 179 181 182 179 181 187 187 178 183
257 226 215 207 204 202 208 214 217 216 216 217 215 217 219 217 198 192 189 187 194 186 182 183 181 180 176 184 183 186 182 179 184 183 185 188 190 189 193 196 197 199 200
243 220 211 202 199 195 203 208 212 213 219 224 226 234 229 218 206 182 178 185 191 188 180 179 182 183 180 184 175 183 179 186 189 189 190 196 200 198 209 207 208 213 218
213 204 199 188 192 190 191 194 202 214 222 222 232 243 227 209 213 170 174 183 188 186 185 183 184 181 176 176 160 151 169 192 193 197 200 205 207 208 215 217 218 225 233
202 195 190 185 188 192 188 192 191 201 211 221 220 211 202 175 162 160 168 178 186 181 185 182 177 168 174 176 165 138 138 171 212 212 211 215 216 219 221 224 224 235 245
201 193 186 183 186 189 186 181 189 190 195 194 191 176 183 175 170 175 180 182 187 189 185 184 181 179 170 178 174 149 140 183 144 213 222 225 224 229 232 233 235 244 252
203 194 188 187 181 191 196 182 186 181 176 187 184 183 182 177 190 189 192 192 191 193 188 188 187 184 181 179 180 165 160 142 153 171 224 228 230 234 241 242 242 250 258
198 187 188 180 180 191 196 194 177 179 184 186 185 175 179 193 194 193 196 195 200 196 196 190 190 190 188 183 180 175 150 149 151 145 171 197 230 233 242 245 247 258 266
192 185 181 178 179 191 199 200 192 186 184 179 183 183 186 178 182 197 204 209 205 202 201 198 196 197 196 193 188 189 177 164 170 170 125 138 209 234 238 245 254 271 285